Regional Weather Roundup
Issued by NWS Columbia, SC

Home | Current Version | Previous Version | Text Only | Print | Product List | Glossary On
Versions: 1 2 3 4 5 6 7 8 9 10 11 12 13 14 15 16 17 18 19 20 21 22 23 24 25 26 27
000
ASUS42 KCAE 252310
RWRCAE
REGIONAL WEATHER ROUNDUP
NATIONAL WEATHER SERVICE COLUMBIA SC
700 PM EDT TUE APR 25 2017

NOTE: "FAIR" INDICATES FEW OR NO CLOUDS BELOW 12,000 FEET WITH NO
SIGNIFICANT WEATHER AND/OR OBSTRUCTIONS TO VISIBILITY.

NOT ALL STATIONS ARE QUALITY CONTROLLED BY THE NATIONAL
WEATHER SERVICE. USE DATA WITH CAUTION...ESPECIALLY
DEWPOINT OBSERVATIONS.

SCZ001>056-GAZ040-063>065-077-260000-
...UPSTATE SOUTH CAROLINA...

CITY           SKY/WX    TMP DP  RH WIND       PRES   REMARKS
ANDERSON       SUNNY     76  59  55 S9        29.70R
LIBERTY        MOCLDY    74  59  58 S3        29.70R
SPARTANBURG    SUNNY     72  57  60 CALM      29.70R
CLEMSON        MOSUNNY   76  58  53 SE6       29.70R
GREENVILLE     CLOUDY    74  58  57 SE7       29.71R
GREENWOOD      SUNNY     72  57  59 SW8       29.72S
GREER          PTSUNNY   72  60  66 S6        29.69S
ROCK HILL      MOSUNNY   67  58  72 N3        29.71S
CHESTER        CLEAR     66  55  68 NE5       29.72S
LAURENS        CLEAR     73  59  60 CALM      29.70S


...CENTRAL SOUTH CAROLINA...

CITY           SKY/WX    TMP DP  RH WIND       PRES   REMARKS
COLUMBIA APT   PTSUNNY   73  58  59 N3        29.70S
COLUMBIA OWENS CLOUDY    72  58  61 CALM      29.72S
MCENTIRE ANGB  PTSUNNY   70  58  67 NW3       29.71S
ORANGEBURG     MOSUNNY   74  59  59 NW7       29.71R
SUMTER SHAW    CLOUDY    68  58  70 W5        29.69S
NEWBERRY       PTCLDY    73  61  64 SW7       29.74S
AIKEN          FAIR      72  55  56 W7        29.75S
BARNWELL       FAIR      77  61  57 CALM      29.71S
MANNING        FAIR      70  57  64 MISG      29.71R
CAMDEN         FAIR      68  59  73 CALM      29.71S
LANCASTER      PTCLDY    68  61  77 CALM      29.71S
WINNSBORO      CLEAR     68  59  73 CALM      29.71S


...EASTERN AND COASTAL SOUTH CAROLINA...

CITY           SKY/WX    TMP DP  RH WIND       PRES   REMARKS
MYRTLE BEACH   CLOUDY    64  59  82 NW6       29.71S
N MYRTLE BCH   CLOUDY    66  60  81 W5        29.69R
CONWAY         CLOUDY    63  59  88 W5        29.71R HAZE
MARION         FAIR      63  57  82 W8        29.70S
HARTSVILLE     CLOUDY    63  57  82 CALM      29.70S
FLORENCE       CLOUDY    65  59  81 W6        29.71R
DARLINGTON     CLOUDY    65  59  81 NW3       29.71R
CHARLESTON APT MOSUNNY   74  59  59 W8        29.70R
MOUNT PLEASANT MOCLDY    73  61  64 CALM      29.71R
WALTERBORO     PTCLDY    73  61  64 W6        29.72R
BEAUFORT       CLOUDY    77  61  57 W5        29.71R


...EASTERN GEORGIA...

CITY           SKY/WX    TMP DP  RH WIND       PRES   REMARKS
AUGUSTA BUSH F SUNNY     79  59  50 NW8       29.70R
AUGUSTA DANIEL PTSUNNY   76  56  49 W5        29.72R
THOMSON        SUNNY     75  59  57 W5        29.76F
WASHINGTON     FAIR      77  63  61 S3        29.71S
CLAXTON        FAIR      80  62  54 W5        29.71S
SYLVANIA       CLOUDY   N/A N/A N/A NW5       29.72S
STATESBORO     CLOUDY    78  59  51 NW6       29.71S
SAVANNAH       PTSUNNY   79  57  46 W7        29.71R


...SOUTHERN NORTH CAROLINA...

CITY           SKY/WX    TMP DP  RH WIND       PRES   REMARKS
CHARLOTTE      MOSUNNY   69  57  65 NE7       29.71S
MONROE         CLOUDY    66  56  70 N5        29.70R
WADESBORO      CLOUDY    65  58  78 CALM      29.70R
ROCKINGHAM     CLOUDY    62  61  95 W3        29.70R
RUTHERFORDTON  CLOUDY    72  61  67 E5        29.71S
ASHEVILLE      SUNNY     68  50  52 N12       29.75R

$$




USA.gov is the U.S. government's official web portal to all federal, state and local government web resources and services.